Year,Month,Day,Hour,Minute,Value (Times are PST for temperature in C)
2018,06,18,00,00,14.80
2018,06,18,00,01,14.80
2018,06,18,00,02,14.80
2018,06,18,00,03,14.80
2018,06,18,00,04,14.80
2018,06,18,00,05,14.80
2018,06,18,00,06,14.80
2018,06,18,00,07,14.80
2018,06,18,00,08,14.80
2018,06,18,00,09,14.70
2018,06,18,00,10,14.70
2018,06,18,00,11,14.70
2018,06,18,00,12,14.70
2018,06,18,00,13,14.80
2018,06,18,00,14,14.80
2018,06,18,00,15,14.80
2018,06,18,00,16,14.80
2018,06,18,00,17,14.80
2018,06,18,00,18,14.80
2018,06,18,00,19,14.80
2018,06,18,00,20,14.80
2018,06,18,00,21,14.80
2018,06,18,00,22,14.80
2018,06,18,00,23,14.80
2018,06,18,00,24,14.80
2018,06,18,00,25,14.80
2018,06,18,00,26,14.80
2018,06,18,00,27,14.80
2018,06,18,00,28,14.80
2018,06,18,00,29,14.80
2018,06,18,00,30,14.80
2018,06,18,00,31,14.80
2018,06,18,00,32,14.80
2018,06,18,00,33,14.80
2018,06,18,00,34,14.80
2018,06,18,00,35,14.80
2018,06,18,00,36,14.90
2018,06,18,00,37,14.90
2018,06,18,00,38,14.90
2018,06,18,00,39,14.80
2018,06,18,00,40,14.80
2018,06,18,00,41,14.80
2018,06,18,00,42,14.70
2018,06,18,00,43,14.70
2018,06,18,00,44,14.60
2018,06,18,00,45,14.60
2018,06,18,00,46,14.60
2018,06,18,00,47,14.60
2018,06,18,00,48,14.60
2018,06,18,00,49,14.60
2018,06,18,00,50,14.70
2018,06,18,00,51,14.70
2018,06,18,00,52,14.80
2018,06,18,00,53,14.80
2018,06,18,00,54,14.80
2018,06,18,00,55,14.80
2018,06,18,00,56,14.80
2018,06,18,00,57,14.80
2018,06,18,00,58,14.80
2018,06,18,00,59,14.80
2018,06,18,01,00,14.80
2018,06,18,01,01,14.80
2018,06,18,01,02,14.80
2018,06,18,01,03,14.80
2018,06,18,01,04,14.80
2018,06,18,01,05,14.80
2018,06,18,01,06,14.80
2018,06,18,01,07,14.80
2018,06,18,01,08,14.80
2018,06,18,01,09,14.80
2018,06,18,01,10,14.80
2018,06,18,01,11,14.80
2018,06,18,01,12,14.80
2018,06,18,01,13,14.80
2018,06,18,01,14,14.70
2018,06,18,01,15,14.70
2018,06,18,01,16,14.70
2018,06,18,01,17,14.60
2018,06,18,01,18,14.60
2018,06,18,01,19,14.60
2018,06,18,01,20,14.50
2018,06,18,01,21,14.50
2018,06,18,01,22,14.40
2018,06,18,01,23,14.40
2018,06,18,01,24,14.40
2018,06,18,01,25,14.40
2018,06,18,01,26,14.40
2018,06,18,01,27,14.40
2018,06,18,01,28,14.40
2018,06,18,01,29,14.40
2018,06,18,01,30,14.50
2018,06,18,01,31,14.50
2018,06,18,01,32,14.50
2018,06,18,01,33,14.50
2018,06,18,01,34,14.40
2018,06,18,01,35,14.40
2018,06,18,01,36,14.40
2018,06,18,01,37,14.40
2018,06,18,01,38,14.30
2018,06,18,01,39,14.30
2018,06,18,01,40,14.30
2018,06,18,01,41,14.20
2018,06,18,01,42,14.20
2018,06,18,01,43,14.20
2018,06,18,01,44,14.10
2018,06,18,01,45,14.10
2018,06,18,01,46,14.00
2018,06,18,01,47,14.00
2018,06,18,01,48,14.00
2018,06,18,01,49,14.00
2018,06,18,01,50,13.90
2018,06,18,01,51,13.90
2018,06,18,01,52,13.90
2018,06,18,01,53,13.90
2018,06,18,01,54,13.90
2018,06,18,01,55,13.90
2018,06,18,01,56,13.90
2018,06,18,01,57,13.90
2018,06,18,01,58,13.90
2018,06,18,01,59,13.90
2018,06,18,02,00,13.90
2018,06,18,02,01,13.90
2018,06,18,02,02,13.90
2018,06,18,02,03,13.80
2018,06,18,02,04,13.80
2018,06,18,02,05,13.80
2018,06,18,02,06,13.80
2018,06,18,02,07,13.80
2018,06,18,02,08,13.80
2018,06,18,02,09,13.70
2018,06,18,02,10,13.70
2018,06,18,02,11,13.70
2018,06,18,02,12,13.70
2018,06,18,02,13,13.70
2018,06,18,02,14,13.60
2018,06,18,02,15,13.60
2018,06,18,02,16,13.60
2018,06,18,02,17,13.60
2018,06,18,02,18,13.60
2018,06,18,02,19,13.50
2018,06,18,02,20,13.50
2018,06,18,02,21,13.40
2018,06,18,02,22,13.40
2018,06,18,02,23,13.40
2018,06,18,02,24,13.30
2018,06,18,02,25,13.30
2018,06,18,02,26,13.30
2018,06,18,02,27,13.20
2018,06,18,02,28,13.20
2018,06,18,02,29,13.20
2018,06,18,02,30,13.20
2018,06,18,02,31,13.20
2018,06,18,02,32,13.20
2018,06,18,02,33,13.20
2018,06,18,02,34,13.20
2018,06,18,02,35,13.20
2018,06,18,02,36,13.20
2018,06,18,02,37,13.20
2018,06,18,02,38,13.10
2018,06,18,02,39,13.10
2018,06,18,02,40,13.10
2018,06,18,02,41,13.00
2018,06,18,02,42,13.00
2018,06,18,02,43,12.90
2018,06,18,02,44,12.90
2018,06,18,02,45,12.90
2018,06,18,02,46,12.90
2018,06,18,02,47,12.90
2018,06,18,02,48,12.90
2018,06,18,02,49,12.90
2018,06,18,02,50,12.90
2018,06,18,02,51,12.90
2018,06,18,02,52,12.90
2018,06,18,02,53,13.00
2018,06,18,02,54,13.00
2018,06,18,02,55,13.00
2018,06,18,02,56,13.00
2018,06,18,02,57,13.00
2018,06,18,02,58,12.90
2018,06,18,02,59,12.90
2018,06,18,03,00,12.90
2018,06,18,03,01,13.00
2018,06,18,03,02,13.00
2018,06,18,03,03,13.00
2018,06,18,03,04,13.00
2018,06,18,03,05,13.10
2018,06,18,03,06,13.10
2018,06,18,03,07,13.10
2018,06,18,03,08,13.10
2018,06,18,03,09,13.10
2018,06,18,03,10,13.10
2018,06,18,03,11,13.10
2018,06,18,03,12,13.10
2018,06,18,03,13,13.10
2018,06,18,03,14,13.10
2018,06,18,03,15,13.10
2018,06,18,03,16,13.10
2018,06,18,03,17,13.10
2018,06,18,03,18,13.10
2018,06,18,03,19,13.00
2018,06,18,03,20,13.10
2018,06,18,03,21,13.10
2018,06,18,03,22,13.10
2018,06,18,03,23,13.10
2018,06,18,03,24,13.10
2018,06,18,03,25,13.20
2018,06,18,03,26,13.20
2018,06,18,03,27,13.20
2018,06,18,03,28,13.20
2018,06,18,03,29,13.20
2018,06,18,03,30,13.20
2018,06,18,03,31,13.20
2018,06,18,03,32,13.20
2018,06,18,03,33,13.30
2018,06,18,03,34,13.20
2018,06,18,03,35,13.20
2018,06,18,03,36,13.20
2018,06,18,03,37,13.20
2018,06,18,03,38,13.20
2018,06,18,03,39,13.20
2018,06,18,03,40,13.10
2018,06,18,03,41,13.10
2018,06,18,03,42,13.10
2018,06,18,03,43,13.10
2018,06,18,03,44,13.00
2018,06,18,03,45,13.00
2018,06,18,03,46,12.90
2018,06,18,03,47,12.90
2018,06,18,03,48,12.80
2018,06,18,03,49,12.80
2018,06,18,03,50,12.70
2018,06,18,03,51,12.70
2018,06,18,03,52,12.60
2018,06,18,03,53,12.60
2018,06,18,03,54,12.60
2018,06,18,03,55,12.60
2018,06,18,03,56,12.50
2018,06,18,03,57,12.50
2018,06,18,03,58,12.50
2018,06,18,03,59,12.50
2018,06,18,04,00,12.40
2018,06,18,04,01,12.40
2018,06,18,04,02,12.40
2018,06,18,04,03,12.40
2018,06,18,04,04,12.40
2018,06,18,04,05,12.50
2018,06,18,04,06,12.50
2018,06,18,04,07,12.50
2018,06,18,04,08,12.60
2018,06,18,04,09,12.60
2018,06,18,04,10,12.60
2018,06,18,04,11,12.60
2018,06,18,04,12,12.60
2018,06,18,04,13,12.60
2018,06,18,04,14,12.70
2018,06,18,04,15,12.70
2018,06,18,04,16,12.70
2018,06,18,04,17,12.70
2018,06,18,04,18,12.70
2018,06,18,04,19,12.70
2018,06,18,04,20,12.70
2018,06,18,04,21,12.70
2018,06,18,04,22,12.70
2018,06,18,04,23,12.60
2018,06,18,04,24,12.60
2018,06,18,04,25,12.70
2018,06,18,04,26,12.60
2018,06,18,04,27,12.60
2018,06,18,04,28,12.60
2018,06,18,04,29,12.60
2018,06,18,04,30,12.60
2018,06,18,04,31,12.50
2018,06,18,04,32,12.50
2018,06,18,04,33,12.40
2018,06,18,04,34,12.40
2018,06,18,04,35,12.40
2018,06,18,04,36,12.40
2018,06,18,04,37,12.40
2018,06,18,04,38,12.40
2018,06,18,04,39,12.50
2018,06,18,04,40,12.50
2018,06,18,04,41,12.50
2018,06,18,04,42,12.60
2018,06,18,04,43,12.60
2018,06,18,04,44,12.60
2018,06,18,04,45,12.70
2018,06,18,04,46,12.70
2018,06,18,04,47,12.70
2018,06,18,04,48,12.70
2018,06,18,04,49,12.70
2018,06,18,04,50,12.70
2018,06,18,04,51,12.70
2018,06,18,04,52,12.70
2018,06,18,04,53,12.70
2018,06,18,04,54,12.70
2018,06,18,04,55,12.70
2018,06,18,04,56,12.70
2018,06,18,04,57,12.70
2018,06,18,04,58,12.70
2018,06,18,04,59,12.70
2018,06,18,05,00,12.70
2018,06,18,05,01,12.70
2018,06,18,05,02,12.70
2018,06,18,05,03,12.70
2018,06,18,05,04,12.70
2018,06,18,05,05,12.60
2018,06,18,05,06,12.60
2018,06,18,05,07,12.50
2018,06,18,05,08,12.50
2018,06,18,05,09,12.40
2018,06,18,05,10,12.40
2018,06,18,05,11,12.40
2018,06,18,05,12,12.40
2018,06,18,05,13,12.40
2018,06,18,05,14,12.40
2018,06,18,05,15,12.40
2018,06,18,05,16,12.40
2018,06,18,05,17,12.40
2018,06,18,05,18,12.40
2018,06,18,05,19,12.30
2018,06,18,05,20,12.30
2018,06,18,05,21,12.30
2018,06,18,05,22,12.30
2018,06,18,05,23,12.30
2018,06,18,05,24,12.30
2018,06,18,05,25,12.30
2018,06,18,05,26,12.30
2018,06,18,05,27,12.30
2018,06,18,05,28,12.20
2018,06,18,05,29,12.20
2018,06,18,05,30,12.20
2018,06,18,05,31,12.20
2018,06,18,05,32,12.30
2018,06,18,05,33,12.30
2018,06,18,05,34,12.30
2018,06,18,05,35,12.30
2018,06,18,05,36,12.40
2018,06,18,05,37,12.40
2018,06,18,05,38,12.50
2018,06,18,05,39,12.50
2018,06,18,05,40,12.60
2018,06,18,05,41,12.60
2018,06,18,05,42,12.60
2018,06,18,05,43,12.70
2018,06,18,05,44,12.70
2018,06,18,05,45,12.70
2018,06,18,05,46,12.70
2018,06,18,05,47,12.70
2018,06,18,05,48,12.80
2018,06,18,05,49,12.80
2018,06,18,05,50,12.80
2018,06,18,05,51,12.90
2018,06,18,05,52,13.00
2018,06,18,05,53,13.00
2018,06,18,05,54,13.10
2018,06,18,05,55,13.20
2018,06,18,05,56,13.20
2018,06,18,05,57,13.30
2018,06,18,05,58,13.30
2018,06,18,05,59,13.30
2018,06,18,06,00,13.30
2018,06,18,06,01,13.40
2018,06,18,06,02,13.40
2018,06,18,06,03,13.40
2018,06,18,06,04,13.40
2018,06,18,06,05,13.50
2018,06,18,06,06,13.50
2018,06,18,06,07,13.60
2018,06,18,06,08,13.70
2018,06,18,06,09,13.80
2018,06,18,06,10,13.90
2018,06,18,06,11,14.00
2018,06,18,06,12,14.10
2018,06,18,06,13,14.20
2018,06,18,06,14,14.20
2018,06,18,06,15,14.30
2018,06,18,06,16,14.30
2018,06,18,06,17,14.30
2018,06,18,06,18,14.40
2018,06,18,06,19,14.40
2018,06,18,06,20,14.40
2018,06,18,06,21,14.50
2018,06,18,06,22,14.60
2018,06,18,06,23,14.60
2018,06,18,06,24,14.70
2018,06,18,06,25,14.80
2018,06,18,06,26,14.90
2018,06,18,06,27,15.00
2018,06,18,06,28,15.10
2018,06,18,06,29,15.20
2018,06,18,06,30,15.30
2018,06,18,06,31,15.30
2018,06,18,06,32,15.40
2018,06,18,06,33,15.40
2018,06,18,06,34,15.40
2018,06,18,06,35,15.40
2018,06,18,06,36,15.50
2018,06,18,06,37,15.50
2018,06,18,06,38,15.60
2018,06,18,06,39,15.70
2018,06,18,06,40,15.70
2018,06,18,06,41,15.80
2018,06,18,06,42,15.80
2018,06,18,06,43,15.90
2018,06,18,06,44,15.90
2018,06,18,06,45,15.90
2018,06,18,06,46,16.00
2018,06,18,06,47,16.00
2018,06,18,06,48,16.00
2018,06,18,06,49,16.00
2018,06,18,06,50,16.10
2018,06,18,06,51,16.20
2018,06,18,06,52,16.20
2018,06,18,06,53,16.30
2018,06,18,06,54,16.30
2018,06,18,06,55,16.30
2018,06,18,06,56,16.40
2018,06,18,06,57,16.40
2018,06,18,06,58,16.50
2018,06,18,06,59,16.50
2018,06,18,07,00,16.50
2018,06,18,07,01,16.60
2018,06,18,07,02,16.60
2018,06,18,07,03,16.60
2018,06,18,07,04,16.60
2018,06,18,07,05,16.60
2018,06,18,07,06,16.70
2018,06,18,07,07,16.70
2018,06,18,07,08,16.80
2018,06,18,07,09,16.80
2018,06,18,07,10,16.80
2018,06,18,07,11,16.90
2018,06,18,07,12,17.00
2018,06,18,07,13,17.10
2018,06,18,07,14,17.30
2018,06,18,07,15,17.40
2018,06,18,07,16,17.50
2018,06,18,07,17,17.60
2018,06,18,07,18,17.70
2018,06,18,07,19,17.80
2018,06,18,07,20,17.90
2018,06,18,07,21,17.90
2018,06,18,07,22,17.90
2018,06,18,07,23,18.00
2018,06,18,07,24,18.10
2018,06,18,07,25,18.10
2018,06,18,07,26,18.20
2018,06,18,07,27,18.30
2018,06,18,07,28,18.40
2018,06,18,07,29,18.50
2018,06,18,07,30,18.60
2018,06,18,07,31,18.80
2018,06,18,07,32,18.90
2018,06,18,07,33,19.00
2018,06,18,07,34,19.10
2018,06,18,07,35,19.10
2018,06,18,07,36,19.20
2018,06,18,07,37,19.30
2018,06,18,07,38,19.40
2018,06,18,07,39,19.50
2018,06,18,07,40,19.50
2018,06,18,07,41,19.60
2018,06,18,07,42,19.60
2018,06,18,07,43,19.60
2018,06,18,07,44,19.60
2018,06,18,07,45,19.60
2018,06,18,07,46,19.60
2018,06,18,07,47,19.70
2018,06,18,07,48,19.70
2018,06,18,07,49,19.70
2018,06,18,07,50,19.80
2018,06,18,07,51,19.90
2018,06,18,07,52,20.00
2018,06,18,07,53,20.10
2018,06,18,07,54,20.20
2018,06,18,07,55,20.30
2018,06,18,07,56,20.40
2018,06,18,07,57,20.50
2018,06,18,07,58,20.60
2018,06,18,07,59,20.70
2018,06,18,08,00,20.70
2018,06,18,08,01,20.70
2018,06,18,08,02,20.80
2018,06,18,08,03,20.80
2018,06,18,08,04,20.90
2018,06,18,08,05,21.00
2018,06,18,08,06,21.10
2018,06,18,08,07,21.20
2018,06,18,08,08,21.40
2018,06,18,08,09,21.50
2018,06,18,08,10,21.70
2018,06,18,08,11,21.80
2018,06,18,08,12,21.90
2018,06,18,08,13,22.10
2018,06,18,08,14,22.20
2018,06,18,08,15,22.20
2018,06,18,08,16,22.30
2018,06,18,08,17,22.30
2018,06,18,08,18,22.30
2018,06,18,08,19,22.30
2018,06,18,08,20,22.40
2018,06,18,08,21,22.50
2018,06,18,08,22,22.60
2018,06,18,08,23,22.60
2018,06,18,08,24,22.60
2018,06,18,08,25,22.60
2018,06,18,08,26,22.70
2018,06,18,08,27,22.70
2018,06,18,08,28,22.70
2018,06,18,08,29,22.70
2018,06,18,08,30,22.80
2018,06,18,08,31,22.80
2018,06,18,08,32,22.80
2018,06,18,08,33,22.80
2018,06,18,08,34,22.90
2018,06,18,08,35,23.00
2018,06,18,08,36,23.00
2018,06,18,08,37,23.10
2018,06,18,08,38,23.10
2018,06,18,08,39,23.10
2018,06,18,08,40,23.20
2018,06,18,08,41,23.20
2018,06,18,08,42,23.30
2018,06,18,08,43,23.30
2018,06,18,08,44,23.30
2018,06,18,08,45,23.30
2018,06,18,08,46,23.40
2018,06,18,08,47,23.50
2018,06,18,08,48,23.50
2018,06,18,08,49,23.70
2018,06,18,08,50,23.70
2018,06,18,08,51,23.80
2018,06,18,08,52,23.70
2018,06,18,08,53,23.70
2018,06,18,08,54,23.60
2018,06,18,08,55,23.50
2018,06,18,08,56,23.40
2018,06,18,08,57,23.30
2018,06,18,08,58,23.20
2018,06,18,08,59,23.20
2018,06,18,09,00,23.20
2018,06,18,09,01,23.20
2018,06,18,09,02,23.30
2018,06,18,09,03,23.40
2018,06,18,09,04,23.50
2018,06,18,09,05,23.50
2018,06,18,09,06,23.60
2018,06,18,09,07,23.70
2018,06,18,09,08,23.60
2018,06,18,09,09,23.50
2018,06,18,09,10,23.40
2018,06,18,09,11,23.30
2018,06,18,09,12,23.20
2018,06,18,09,13,23.10
2018,06,18,09,14,23.10
2018,06,18,09,15,23.00
2018,06,18,09,16,23.00
2018,06,18,09,17,23.00
2018,06,18,09,18,23.00
2018,06,18,09,19,23.00
2018,06,18,09,20,23.00
2018,06,18,09,21,23.10
2018,06,18,09,22,23.20
2018,06,18,09,23,23.20
2018,06,18,09,24,23.10
2018,06,18,09,25,23.00
2018,06,18,09,26,23.00
2018,06,18,09,27,22.90
2018,06,18,09,28,22.80
2018,06,18,09,29,22.80
2018,06,18,09,30,22.70
2018,06,18,09,31,22.60
2018,06,18,09,32,22.50
2018,06,18,09,33,22.50
2018,06,18,09,34,22.40
2018,06,18,09,35,22.40
2018,06,18,09,36,22.50
2018,06,18,09,37,22.60
2018,06,18,09,38,22.70
2018,06,18,09,39,22.80
2018,06,18,09,40,22.80
2018,06,18,09,41,22.90
2018,06,18,09,42,23.00
2018,06,18,09,43,23.00
2018,06,18,09,44,23.10
2018,06,18,09,45,23.10
2018,06,18,09,46,23.20
2018,06,18,09,47,23.30
2018,06,18,09,48,23.40
2018,06,18,09,49,23.50
2018,06,18,09,50,23.50
2018,06,18,09,51,23.60
2018,06,18,09,52,23.70
2018,06,18,09,53,23.70
2018,06,18,09,54,23.70
2018,06,18,09,55,23.70
2018,06,18,09,56,23.80
2018,06,18,09,57,23.80
2018,06,18,09,58,23.80
2018,06,18,09,59,23.90
2018,06,18,10,00,23.90
2018,06,18,10,01,24.00
2018,06,18,10,02,24.00
2018,06,18,10,03,24.10
2018,06,18,10,04,24.10
2018,06,18,10,05,24.10
2018,06,18,10,06,24.00
2018,06,18,10,07,24.00
2018,06,18,10,08,24.10
2018,06,18,10,09,24.10
2018,06,18,10,10,24.10
2018,06,18,10,11,24.20
2018,06,18,10,12,24.20
2018,06,18,10,13,24.20
2018,06,18,10,14,24.20
2018,06,18,10,15,24.30
2018,06,18,10,16,24.30
2018,06,18,10,17,24.30
2018,06,18,10,18,24.40
2018,06,18,10,19,24.40
2018,06,18,10,20,24.50
2018,06,18,10,21,24.60
2018,06,18,10,22,24.70
2018,06,18,10,23,24.80
2018,06,18,10,24,24.80
2018,06,18,10,25,24.90
2018,06,18,10,26,25.00
2018,06,18,10,27,25.10
2018,06,18,10,28,25.10
2018,06,18,10,29,25.00
2018,06,18,10,30,24.90
2018,06,18,10,31,24.70
2018,06,18,10,32,24.50
2018,06,18,10,33,24.30
2018,06,18,10,34,24.20
2018,06,18,10,35,24.20
2018,06,18,10,36,24.20
2018,06,18,10,37,24.30
2018,06,18,10,38,24.30
2018,06,18,10,39,24.50
2018,06,18,10,40,24.60
2018,06,18,10,41,24.70
2018,06,18,10,42,24.80
2018,06,18,10,43,25.00
2018,06,18,10,44,25.10
2018,06,18,10,45,25.20
2018,06,18,10,46,25.30
2018,06,18,10,47,25.30
2018,06,18,10,48,25.30
2018,06,18,10,49,25.50
2018,06,18,10,50,25.60
2018,06,18,10,51,25.80
2018,06,18,10,52,25.80
2018,06,18,10,53,25.70
2018,06,18,10,54,25.60
2018,06,18,10,55,25.40
2018,06,18,10,56,25.20
2018,06,18,10,57,25.00
2018,06,18,10,58,25.00
2018,06,18,10,59,25.00
2018,06,18,11,00,24.90
2018,06,18,11,01,25.00
2018,06,18,11,02,25.20
2018,06,18,11,03,25.30
2018,06,18,11,04,25.30
2018,06,18,11,05,25.40
2018,06,18,11,06,25.50
2018,06,18,11,07,25.60
2018,06,18,11,08,25.60
2018,06,18,11,09,25.60
2018,06,18,11,10,25.50
2018,06,18,11,11,25.30
2018,06,18,11,12,25.20
2018,06,18,11,13,25.10
2018,06,18,11,14,24.90
2018,06,18,11,15,24.70
2018,06,18,11,16,24.60
2018,06,18,11,17,24.50
2018,06,18,11,18,24.50
2018,06,18,11,19,24.50
2018,06,18,11,20,24.50
2018,06,18,11,21,24.50
2018,06,18,11,26,23.90
2018,06,18,11,27,23.90
2018,06,18,11,28,23.90
2018,06,18,11,29,23.90
2018,06,18,11,30,23.90
2018,06,18,11,31,23.90
2018,06,18,11,32,23.80
2018,06,18,11,33,23.80
2018,06,18,11,34,23.80
2018,06,18,11,35,23.80
2018,06,18,11,36,23.90
2018,06,18,11,37,24.00
2018,06,18,11,38,24.10
2018,06,18,11,39,24.10
2018,06,18,11,40,24.20
2018,06,18,11,41,24.30
2018,06,18,11,42,24.20
2018,06,18,11,43,24.20
2018,06,18,11,44,24.30
2018,06,18,11,45,24.30
2018,06,18,11,46,24.40
2018,06,18,11,47,24.40
2018,06,18,11,48,24.30
2018,06,18,11,49,24.20
2018,06,18,11,50,24.10
2018,06,18,11,51,24.00
2018,06,18,11,52,24.00
2018,06,18,11,53,23.90
2018,06,18,11,54,23.80
2018,06,18,11,55,23.80
2018,06,18,11,56,23.80
2018,06,18,11,57,23.90
2018,06,18,11,58,24.00
2018,06,18,11,59,24.10
2018,06,18,12,00,24.20
2018,06,18,12,01,24.40
2018,06,18,12,02,24.60
2018,06,18,12,03,24.70
2018,06,18,12,04,24.80
2018,06,18,12,05,24.80
2018,06,18,12,06,24.70
2018,06,18,12,07,24.60
2018,06,18,12,08,24.40
2018,06,18,12,09,24.30
2018,06,18,12,10,24.20
2018,06,18,12,11,24.10
2018,06,18,12,12,23.90
2018,06,18,12,13,23.80
2018,06,18,12,14,23.70
2018,06,18,12,15,23.50
2018,06,18,12,16,23.50
2018,06,18,12,17,23.40
2018,06,18,12,18,23.30
2018,06,18,12,19,23.30
2018,06,18,12,20,23.20
2018,06,18,12,21,23.10
2018,06,18,12,22,23.10
2018,06,18,12,23,23.20
2018,06,18,12,24,23.30
2018,06,18,12,25,23.50
2018,06,18,12,26,23.60
2018,06,18,12,27,23.70
2018,06,18,12,28,23.70
2018,06,18,12,29,23.70
2018,06,18,12,30,23.60
2018,06,18,12,31,23.40
2018,06,18,12,32,23.20
2018,06,18,12,33,23.00
2018,06,18,12,34,22.90
2018,06,18,12,35,22.90
2018,06,18,12,36,22.90
2018,06,18,12,37,22.90
2018,06,18,12,38,23.00
2018,06,18,12,39,23.10
2018,06,18,12,40,23.20
2018,06,18,12,41,23.20
2018,06,18,12,42,23.30
2018,06,18,12,43,23.20
2018,06,18,12,44,23.20
2018,06,18,12,45,23.20
2018,06,18,12,46,23.20
2018,06,18,12,47,23.40
2018,06,18,12,48,23.60
2018,06,18,12,49,23.70
2018,06,18,12,50,23.90
2018,06,18,12,51,23.90
2018,06,18,12,52,24.00
2018,06,18,12,53,24.20
2018,06,18,12,54,24.30
2018,06,18,12,55,24.30
2018,06,18,12,56,24.30
2018,06,18,12,57,24.20
2018,06,18,12,58,24.10
2018,06,18,12,59,24.00
2018,06,18,13,00,24.00
2018,06,18,13,01,24.00
2018,06,18,13,02,24.00
2018,06,18,13,03,24.10
2018,06,18,13,04,24.20
2018,06,18,13,05,24.30
2018,06,18,13,06,24.30
2018,06,18,13,07,24.20
2018,06,18,13,08,24.20
2018,06,18,13,09,24.20
2018,06,18,13,10,24.20
2018,06,18,13,11,24.20
2018,06,18,13,12,24.30
2018,06,18,13,13,24.60
2018,06,18,13,14,24.80
2018,06,18,13,15,24.90
2018,06,18,13,16,25.10
2018,06,18,13,17,25.10
2018,06,18,13,18,25.20
2018,06,18,13,19,25.30
2018,06,18,13,20,25.40
2018,06,18,13,21,25.40
2018,06,18,13,22,25.50
2018,06,18,13,23,25.60
2018,06,18,13,24,25.50
2018,06,18,13,25,25.40
2018,06,18,13,26,25.20
2018,06,18,13,27,25.00
2018,06,18,13,28,24.70
2018,06,18,13,29,24.60
2018,06,18,13,30,24.40
2018,06,18,13,31,24.30
2018,06,18,13,32,24.20
2018,06,18,13,33,24.10
2018,06,18,13,34,24.20
2018,06,18,13,35,24.20
2018,06,18,13,36,24.20
2018,06,18,13,37,24.00
2018,06,18,13,38,23.90
2018,06,18,13,39,23.80
2018,06,18,13,40,23.90
2018,06,18,13,41,23.90
2018,06,18,13,42,23.90
2018,06,18,13,43,23.80
2018,06,18,13,44,23.80
2018,06,18,13,45,23.90
2018,06,18,13,46,24.00
2018,06,18,13,47,24.10
2018,06,18,13,48,24.30
2018,06,18,13,49,24.30
2018,06,18,13,50,24.20
2018,06,18,13,51,24.30
2018,06,18,13,52,24.30
2018,06,18,13,53,24.30
2018,06,18,13,54,24.40
2018,06,18,13,55,24.40
2018,06,18,13,56,24.50
2018,06,18,13,57,24.50
2018,06,18,13,58,24.70
2018,06,18,13,59,24.80
2018,06,18,14,00,25.00
2018,06,18,14,01,25.20
2018,06,18,14,02,25.20
2018,06,18,14,03,25.10
2018,06,18,14,04,25.00
2018,06,18,14,05,24.90
2018,06,18,14,06,24.90
2018,06,18,14,07,25.00
2018,06,18,14,08,25.00
2018,06,18,14,09,24.90
2018,06,18,14,10,24.80
2018,06,18,14,11,24.70
2018,06,18,14,12,24.70
2018,06,18,14,13,24.70
2018,06,18,14,14,24.70
2018,06,18,14,15,24.80
2018,06,18,14,16,25.00
2018,06,18,14,17,25.10
2018,06,18,14,18,25.20
2018,06,18,14,19,25.20
2018,06,18,14,20,25.30
2018,06,18,14,21,25.40
2018,06,18,14,22,25.40
2018,06,18,14,23,25.40
2018,06,18,14,24,25.30
2018,06,18,14,25,25.20
2018,06,18,14,26,25.20
2018,06,18,14,27,25.10
2018,06,18,14,28,25.20
2018,06,18,14,29,25.30
2018,06,18,14,30,25.40
2018,06,18,14,31,25.60
2018,06,18,14,32,25.70
2018,06,18,14,33,25.90
2018,06,18,14,34,25.90
2018,06,18,14,35,25.90
2018,06,18,14,36,25.90
2018,06,18,14,37,25.90
2018,06,18,14,38,26.00
2018,06,18,14,39,26.00
2018,06,18,14,40,26.10
2018,06,18,14,41,26.10
2018,06,18,14,42,26.00
2018,06,18,14,43,25.80
2018,06,18,14,44,25.70
2018,06,18,14,45,25.60
2018,06,18,14,46,25.50
2018,06,18,14,47,25.60
2018,06,18,14,48,25.60
2018,06,18,14,49,25.60
2018,06,18,14,50,25.70
2018,06,18,14,51,25.80
2018,06,18,14,52,25.80
2018,06,18,14,53,25.90
2018,06,18,14,54,25.90
2018,06,18,14,55,25.90
2018,06,18,14,56,25.80
2018,06,18,14,57,25.70
2018,06,18,14,58,25.60
2018,06,18,14,59,25.40
2018,06,18,15,00,25.40
2018,06,18,15,01,25.30
2018,06,18,15,02,25.40
2018,06,18,15,03,25.60
2018,06,18,15,04,25.70
2018,06,18,15,05,25.80
2018,06,18,15,06,25.90
2018,06,18,15,07,26.00
2018,06,18,15,08,26.00
2018,06,18,15,09,25.90
2018,06,18,15,10,25.80
2018,06,18,15,11,25.60
2018,06,18,15,12,25.30
2018,06,18,15,13,25.20
2018,06,18,15,14,25.00
2018,06,18,15,15,24.80
2018,06,18,15,16,24.70
2018,06,18,15,17,24.70
2018,06,18,15,18,24.80
2018,06,18,15,19,24.80
2018,06,18,15,20,24.90
2018,06,18,15,21,24.90
2018,06,18,15,22,24.80
2018,06,18,15,23,24.80
2018,06,18,15,24,24.80
2018,06,18,15,25,24.80
2018,06,18,15,26,24.80
2018,06,18,15,27,24.80
2018,06,18,15,28,24.80
2018,06,18,15,29,24.70
2018,06,18,15,30,24.70
2018,06,18,15,31,24.70
2018,06,18,15,32,24.80
2018,06,18,15,33,24.80
2018,06,18,15,34,24.80
2018,06,18,15,35,24.90
2018,06,18,15,36,24.90
2018,06,18,15,37,24.90
2018,06,18,15,38,24.80
2018,06,18,15,39,24.70
2018,06,18,15,40,24.80
2018,06,18,15,41,24.80
2018,06,18,15,42,24.80
2018,06,18,15,43,24.80
2018,06,18,15,44,24.80
2018,06,18,15,45,24.90
2018,06,18,15,46,24.80
2018,06,18,15,47,24.80
2018,06,18,15,48,24.70
2018,06,18,15,49,24.70
2018,06,18,15,50,24.70
2018,06,18,15,51,24.70
2018,06,18,15,52,24.60
2018,06,18,15,53,24.60
2018,06,18,15,54,24.70
2018,06,18,15,55,24.70
2018,06,18,15,56,24.70
2018,06,18,15,57,24.70
2018,06,18,15,58,24.70
2018,06,18,15,59,24.60
2018,06,18,16,00,24.40
2018,06,18,16,01,24.20
2018,06,18,16,02,24.20
2018,06,18,16,03,24.00
2018,06,18,16,04,23.90
2018,06,18,16,05,23.80
2018,06,18,16,06,23.70
2018,06,18,16,07,23.50
2018,06,18,16,08,23.40
2018,06,18,16,09,23.20
2018,06,18,16,10,22.90
2018,06,18,16,11,22.80
2018,06,18,16,12,22.80
2018,06,18,16,13,23.00
2018,06,18,16,14,23.10
2018,06,18,16,15,23.10
2018,06,18,16,16,23.10
2018,06,18,16,17,23.20
2018,06,18,16,18,23.20
2018,06,18,16,19,23.30
2018,06,18,16,20,23.60
2018,06,18,16,21,24.10
2018,06,18,16,22,24.60
2018,06,18,16,23,25.00
2018,06,18,16,24,25.40
2018,06,18,16,25,25.60
2018,06,18,16,26,25.70
2018,06,18,16,27,25.50
2018,06,18,16,28,25.00
2018,06,18,16,29,24.70
2018,06,18,16,30,24.40
2018,06,18,16,31,24.10
2018,06,18,16,32,24.00
2018,06,18,16,33,23.90
2018,06,18,16,34,23.80
2018,06,18,16,35,23.80
2018,06,18,16,36,23.80
2018,06,18,16,37,23.70
2018,06,18,16,38,23.50
2018,06,18,16,39,23.30
2018,06,18,16,40,23.20
2018,06,18,16,41,23.00
2018,06,18,16,42,22.80
2018,06,18,16,43,22.80
2018,06,18,16,44,22.80
2018,06,18,16,45,22.60
2018,06,18,16,46,22.30
2018,06,18,16,47,22.00
2018,06,18,16,48,21.80
2018,06,18,16,49,21.70
2018,06,18,16,50,21.50
2018,06,18,16,51,21.40
2018,06,18,16,52,21.30
2018,06,18,16,53,21.20
2018,06,18,16,54,21.10
2018,06,18,16,55,21.00
2018,06,18,16,56,21.10
2018,06,18,16,57,21.10
2018,06,18,16,58,21.00
2018,06,18,16,59,20.80
2018,06,18,17,00,20.70
2018,06,18,17,01,20.60
2018,06,18,17,02,20.30
2018,06,18,17,03,20.10
2018,06,18,17,04,19.90
2018,06,18,17,05,19.80
2018,06,18,17,06,19.70
2018,06,18,17,07,19.50
2018,06,18,17,08,19.40
2018,06,18,17,09,19.50
2018,06,18,17,10,19.40
2018,06,18,17,11,19.30
2018,06,18,17,12,19.30
2018,06,18,17,13,19.30
2018,06,18,17,14,19.30
2018,06,18,17,15,19.20
2018,06,18,17,16,19.10
2018,06,18,17,17,19.10
2018,06,18,17,18,19.10
2018,06,18,17,19,19.20
2018,06,18,17,20,19.30
2018,06,18,17,21,19.40
2018,06,18,17,22,19.50
2018,06,18,17,23,19.50